[[{"header":{"parameterUnit":"m.s-1","parameterCategory":1,"la1":30.2991,"la2":30.254,"lo1":-89.0895,"lo2":-89.0444,"dy":0.0017,"dx":0.0017,"nx":28,"ny":28,"refTime":"2025-02-28T09:00:00:Z","depth":0,"parameterNumber":2,"parameterNumberName":"U-component_of_WINDS"},"data":[0,0,0,0,0,0,0,0,0,0,0,0,0,0,0,0,0,0,0,0,0,0,0,0,0,0,0,0,0,0,0,0,0,0,0,0,0,0,0,0,0,0,0,0,0,0,0,0,0,0,0,0,0,0,0,0,0,0,-0.4486,-0.4486,0,-0.4551,-0.4552,-0.4553,-0.4535,-0.4533,-0.4532,-0.4531,-0.4601,-0.4604,-0.4607,0,0,0,0,0,0,0,0,0,0,0,0,0,-0.4348,-0.4351,-0.4486,-0.4486,-0.4487,-0.4551,-0.4552,-0.4553,-0.4535,-0.4533,-0.4532,-0.453,-0.46,-0.4604,-0.4608,0,0,0,0,0,0,0,0,0,0,0,0,0,-0.441,-0.4352,-0.4486,-0.4486,-0.4487,-0.4551,-0.4552,-0.4553,-0.4535,-0.4533,-0.4531,-0.453,-0.4599,-0.4604,-0.4608,-0.4677,0,0,-0.4623,-0.4625,0,0,0,0,0,0,0,0,-0.4407,-0.4415,-0.4485,-0.4486,-0.4487,-0.4533,-0.4529,-0.4595,-0.4536,-0.4517,-0.4531,-0.4529,-0.458,-0.4586,-0.4603,-0.468,-0.4683,-0.4623,-0.4626,-0.4628,-0.4629,0,0,0,0,0,0,0,-0.4402,-0.4412,-0.4512,-0.4486,-0.4487,-0.4484,-0.449,-0.4542,-0.4559,-0.4519,-0.4517,-0.4525,-0.4581,-0.4599,-0.4605,-0.4684,-0.4623,-0.4627,-0.463,-0.4632,-0.4821,-0.4823,0,0,0,0,0,0,-0.4397,-0.4409,-0.451,-0.4514,-0.4441,-0.4488,-0.4495,-0.452,-0.4559,-0.4562,-0.4527,-0.4524,-0.4592,-0.4599,-0.4607,-0.4691,-0.4628,-0.4632,-0.4635,-0.4819,-0.4822,-0.4824,0,0,0,0,0,0,-0.4394,-0.4406,-0.4507,-0.4461,-0.4473,-0.4492,-0.452,-0.4522,-0.4541,-0.4565,-0.4568,-0.4542,-0.459,-0.4601,-0.466,-0.4693,-0.4634,-0.4638,-0.4816,-0.482,-0.4823,-0.4858,0,0,0,0,0,0,-0.439,-0.4405,-0.4431,-0.4462,-0.4476,-0.4558,-0.4522,-0.4525,-0.4548,-0.4545,-0.458,-0.4584,-0.459,-0.4653,-0.4664,-0.4698,-0.4642,-0.4814,-0.4818,-0.4822,-0.4854,-0.4862,-0.4869,0,0,0,0,0,-0.4385,-0.4439,-0.4432,-0.4445,-0.4508,-0.456,-0.4568,-0.4573,-0.4551,-0.4578,-0.4593,-0.4583,-0.4687,-0.4659,-0.4672,-0.4708,-0.4812,-0.4817,-0.4822,-0.4851,-0.486,-0.4869,0,0,0,0,0,0,-0.4413,-0.4443,-0.4436,-0.4501,-0.4528,-0.4556,-0.459,-0.4583,-0.4617,-0.4613,-0.4619,-0.4627,-0.4687,-0.4703,-0.4671,-0.4776,-0.4746,-0.4754,-0.4764,-0.4773,-0.4781,-0.4777,-0.4646,0,0,0,0,0,-0.4426,-0.4464,-0.4489,-0.4544,-0.4557,-0.4571,-0.4594,-0.4595,-0.4623,-0.4635,-0.4655,-0.4684,-0.4723,-0.4749,-0.4786,-0.4855,-0.4863,-0.4886,-0.4894,-0.49,-0.4907,-0.4946,-0.4957,-0.4841,-0.4841,-0.484,0,0,-0.4455,-0.4476,-0.45,-0.455,-0.4571,-0.4611,-0.4581,-0.4625,-0.4655,-0.4642,-0.4699,-0.4714,-0.4747,-0.4811,-0.4841,-0.4827,-0.4941,-0.4906,-0.4911,-0.4915,-0.4952,-0.4963,-0.4973,-0.4844,-0.4843,-0.4843,0,0,-0.4528,-0.4547,-0.4595,-0.4616,-0.4648,-0.4657,-0.4668,-0.4698,-0.4707,-0.4764,-0.4755,-0.4791,-0.4858,-0.4882,-0.4903,-0.4983,-0.4976,-0.4995,-0.5036,-0.5073,-0.5082,-0.509,-0.512,-0.5131,-0.5002,-0.5002,-0.5002,0,-0.4561,-0.462,-0.4621,-0.4666,-0.4688,-0.4676,-0.4726,-0.4746,-0.4789,-0.4805,-0.4788,-0.4872,-0.4893,-0.4963,-0.4983,-0.5,-0.5014,-0.4993,-0.508,-0.5089,-0.5096,-0.5125,-0.5136,-0.5005,-0.5004,-0.5004,-0.5004,0,-0.4658,-0.4699,-0.4735,-0.4775,-0.4801,-0.4848,-0.4857,-0.4884,-0.4882,-0.4893,-0.4951,-0.4975,-0.5017,-0.5034,-0.5033,-0.5104,-0.5094,-0.5079,-0.5049,-0.511,-0.5137,-0.5148,-0.5008,-0.5007,-0.5006,-0.5006,0,0,-0.4753,-0.4792,-0.4805,-0.4823,-0.4856,-0.4888,-0.4935,-0.4975,-0.4998,-0.5027,-0.5067,-0.5123,-0.5109,-0.5132,-0.5134,-0.5167,-0.523,-0.5147,-0.5148,-0.5163,-0.5311,-0.5323,-0.5336,-0.5224,-0.5226,-0.5228,-0.5308,0,-0.483,-0.491,-0.4912,-0.4986,-0.5025,-0.5013,-0.5054,-0.5079,-0.509,-0.5125,-0.5137,-0.5177,-0.5155,-0.5169,-0.52,-0.5216,-0.526,-0.521,-0.5263,-0.5265,-0.5257,-0.535,-0.5364,-0.5439,-0.5319,-0.5321,-0.5322,0,-0.4931,-0.4962,-0.5039,-0.5067,-0.5083,-0.5119,-0.5156,-0.5189,-0.5217,-0.5223,-0.5249,-0.5245,-0.5293,-0.526,-0.5327,-0.5293,-0.5314,-0.5325,-0.5328,-0.5335,-0.5298,-0.5361,-0.5463,-0.5474,-0.5338,-0.5337,-0.5336,0,-0.4993,-0.5055,-0.5109,-0.5125,-0.5158,-0.5183,-0.5198,-0.5225,-0.5248,-0.5281,-0.5296,-0.5334,-0.5355,-0.5385,-0.5392,-0.5367,-0.5459,-0.5427,-0.5467,-0.5467,-0.5488,-0.5487,-0.5597,-0.5499,-0.5499,-0.5499,-0.5499,0,-0.508,-0.5128,-0.5138,-0.5171,-0.5225,-0.5227,-0.5281,-0.5294,-0.5317,-0.5354,-0.5346,-0.5381,-0.5387,-0.5424,-0.543,-0.5485,-0.5494,-0.5501,-0.5502,-0.5503,-0.5502,-0.5518,-0.5514,-0.5502,-0.5501,-0.5501,-0.55,0,-0.516,-0.5168,-0.5227,-0.5252,-0.526,-0.5299,-0.5321,-0.5354,-0.5363,-0.541,-0.5421,-0.5436,-0.5478,-0.5487,-0.5538,-0.5542,-0.5608,-0.5603,-0.5598,-0.5598,-0.5638,-0.5635,-0.5763,-0.5781,-0.567,-0.5671,-0.5672,0,-0.5216,-0.5253,-0.5282,-0.5305,-0.5321,-0.5359,-0.5383,-0.5386,-0.5411,-0.5446,-0.5475,-0.5516,-0.5549,-0.5617,-0.5634,-0.5672,-0.567,-0.5712,-0.5676,-0.5675,-0.5672,-0.567,-0.5675,-0.572,-0.5721,-0.5722,-0.5722,0,-0.5315,-0.5316,-0.535,-0.5386,-0.5414,-0.5443,-0.547,-0.549,-0.5497,-0.5526,-0.5568,-0.5594,-0.5645,-0.5686,-0.5725,-0.5741,-0.5734,-0.5733,-0.5745,-0.5747,-0.5743,-0.5747,-0.5619,-0.5731,-0.573,-0.573,-0.5729,-0.5729,-0.5385,-0.5417,-0.5443,-0.5481,-0.5501,-0.5527,-0.5559,-0.5571,-0.5606,-0.5647,-0.5647,-0.5694,-0.5721,-0.5772,-0.579,-0.5827,-0.5815,-0.5831,-0.5835,-0.584,-0.5844,-0.5735,-0.5834,-0.5834,-0.5834,-0.5834,-0.5834,0,-0.5485,-0.55,-0.5535,-0.5572,-0.5603,-0.5591,-0.562,-0.5646,-0.5687,-0.5713,-0.5745,-0.5794,-0.5834,-0.5852,-0.5892,-0.5918,-0.5916,-0.5929,-0.5928,-0.5932,-0.5853,-0.584,-0.593,-0.593,-0.593,-0.593,-0.593,-0.593,-0.554,-0.5594,-0.5599,-0.5663,-0.5678,-0.5723,-0.5741,-0.5764,-0.5784,-0.5839,-0.5872,-0.5883,-0.5906,-0.5947,-0.5983,-0.5987,-0.6003,-0.6018,-0.6021,-0.5947,-0.5937,-0.5928,-0.5916,-0.6021,-0.6021,-0.6097,-0.6098,-0.6098]},{"header":{"parameterUnit":"m.s-1","parameterCategory":1,"la1":30.2991,"la2":30.254,"lo1":-89.0895,"lo2":-89.0444,"dy":0.0017,"dx":0.0017,"nx":28,"ny":28,"refTime":"2025-02-28T09:00:00:Z","depth":0,"parameterNumber":3,"parameterNumberName":"V-component_of_WINDS"},"data":[0,0,0,0,0,0,0,0,0,0,0,0,0,0,0,0,0,0,0,0,0,0,0,0,0,0,0,0,0,0,0,0,0,0,0,0,0,0,0,0,0,0,0,0,0,0,0,0,0,0,0,0,0,0,0,0,0,0,-3.4415,-3.4416,0,-3.4482,-3.4483,-3.4483,-3.4428,-3.4425,-3.4423,-3.4421,-3.4486,-3.449,-3.4494,0,0,0,0,0,0,0,0,0,0,0,0,0,-3.4237,-3.4241,-3.4415,-3.4416,-3.4417,-3.4482,-3.4483,-3.4483,-3.4428,-3.4425,-3.4422,-3.442,-3.4485,-3.4489,-3.4494,0,0,0,0,0,0,0,0,0,0,0,0,0,-3.431,-3.4242,-3.4415,-3.4397,-3.4396,-3.4482,-3.4483,-3.4484,-3.4429,-3.4425,-3.4422,-3.4418,-3.4483,-3.4489,-3.4495,-3.46,0,0,-3.4512,-3.4515,0,0,0,0,0,0,0,0,-3.4306,-3.4317,-3.4399,-3.4399,-3.4398,-3.4443,-3.4444,-3.4523,-3.4429,-3.4416,-3.4421,-3.4417,-3.4474,-3.4481,-3.4501,-3.4603,-3.4606,-3.4513,-3.4517,-3.4519,-3.4521,0,0,0,0,0,0,0,-3.4301,-3.4314,-3.4441,-3.44,-3.4399,-3.4385,-3.4391,-3.4458,-3.4464,-3.4417,-3.4413,-3.4422,-3.4473,-3.4495,-3.4502,-3.4607,-3.4513,-3.4518,-3.4522,-3.4524,-3.4799,-3.4803,0,0,0,0,0,0,-3.4298,-3.431,-3.4439,-3.4443,-3.4343,-3.4391,-3.4398,-3.4432,-3.4463,-3.4464,-3.4425,-3.4419,-3.4487,-3.4495,-3.4504,-3.463,-3.4519,-3.4524,-3.4528,-3.4796,-3.48,-3.4804,0,0,0,0,0,0,-3.4295,-3.431,-3.4437,-3.4376,-3.4391,-3.4398,-3.4436,-3.4435,-3.4457,-3.4469,-3.4469,-3.4447,-3.4484,-3.4496,-3.4577,-3.4631,-3.4527,-3.4532,-3.4791,-3.4797,-3.4802,-3.4882,0,0,0,0,0,0,-3.429,-3.431,-3.435,-3.4377,-3.4394,-3.451,-3.4439,-3.4439,-3.4467,-3.4461,-3.4489,-3.4491,-3.4483,-3.4568,-3.4583,-3.4637,-3.4537,-3.4786,-3.4794,-3.4801,-3.4875,-3.489,-3.4903,0,0,0,0,0,-3.4284,-3.437,-3.4353,-3.4369,-3.4446,-3.4513,-3.4523,-3.4512,-3.4472,-3.4513,-3.4521,-3.449,-3.4623,-3.4577,-3.4593,-3.465,-3.4783,-3.4792,-3.48,-3.4868,-3.4887,-3.4903,0,0,0,0,0,0,-3.4348,-3.4373,-3.4354,-3.4452,-3.4481,-3.4504,-3.4555,-3.4532,-3.4573,-3.4565,-3.4549,-3.4556,-3.4642,-3.4654,-3.4603,-3.4754,-3.4696,-3.4708,-3.4743,-3.4761,-3.4774,-3.477,-3.4542,0,0,0,0,0,-3.4374,-3.4428,-3.4446,-3.453,-3.4545,-3.4548,-3.4577,-3.4566,-3.4595,-3.4607,-3.4621,-3.4649,-3.4698,-3.473,-3.4775,-3.4876,-3.4881,-3.4923,-3.4937,-3.4948,-3.4959,-3.5013,-3.5032,-3.4833,-3.4833,-3.4832,0,0,-3.4427,-3.4447,-3.4482,-3.4543,-3.4565,-3.462,-3.4558,-3.4619,-3.466,-3.4616,-3.4694,-3.4705,-3.4736,-3.4828,-3.4869,-3.484,-3.5015,-3.4959,-3.4969,-3.4973,-3.5024,-3.5043,-3.506,-3.4838,-3.4837,-3.4836,0,0,-3.4553,-3.4573,-3.4646,-3.4669,-3.4702,-3.4703,-3.4721,-3.4747,-3.4753,-3.4831,-3.48,-3.4847,-3.493,-3.4954,-3.4976,-3.5111,-3.5084,-3.5126,-3.5199,-3.5253,-3.5268,-3.5282,-3.533,-3.5348,-3.5136,-3.5137,-3.5137,0,-3.4614,-3.4697,-3.4685,-3.4749,-3.4777,-3.4741,-3.4813,-3.4836,-3.4882,-3.4902,-3.4869,-3.4973,-3.4991,-3.5088,-3.5121,-3.5141,-3.516,-3.5123,-3.5267,-3.5281,-3.5294,-3.5339,-3.5357,-3.5141,-3.5141,-3.514,-3.514,0,-3.4771,-3.4829,-3.4883,-3.493,-3.4964,-3.5032,-3.5029,-3.5065,-3.5052,-3.5056,-3.5135,-3.5156,-3.5205,-3.5227,-3.5214,-3.5322,-3.5303,-3.527,-3.5211,-3.5318,-3.536,-3.5378,-3.5148,-3.5147,-3.5145,-3.5144,0,0,-3.4939,-3.4979,-3.4999,-3.502,-3.5054,-3.5098,-3.5164,-3.5213,-3.5243,-3.5276,-3.5331,-3.5402,-3.5371,-3.5397,-3.5386,-3.5433,-3.5538,-3.5393,-3.5394,-3.542,-3.5659,-3.5684,-3.5705,-3.5521,-3.5524,-3.5527,-3.5656,0,-3.5066,-3.5182,-3.5174,-3.5282,-3.5335,-3.5302,-3.5359,-3.5386,-3.5392,-3.5437,-3.5442,-3.5493,-3.5449,-3.5464,-3.5509,-3.5516,-3.5586,-3.5507,-3.5571,-3.5573,-3.5564,-3.5727,-3.5754,-3.5875,-3.5672,-3.5675,-3.5677,0,-3.523,-3.527,-3.5385,-3.5411,-3.5433,-3.5485,-3.5529,-3.5572,-3.5602,-3.5602,-3.5632,-3.5613,-3.5679,-3.5619,-3.5709,-3.5655,-3.5681,-3.5688,-3.5693,-3.5698,-3.5632,-3.5737,-3.5913,-3.5932,-3.5703,-3.5701,-3.5699,0,-3.5341,-3.5423,-3.5503,-3.5521,-3.5554,-3.5592,-3.5607,-3.5633,-3.5663,-3.57,-3.5719,-3.5764,-3.5789,-3.5823,-3.5817,-3.5774,-3.5908,-3.5848,-3.591,-3.5911,-3.594,-3.5938,-3.6123,-3.5957,-3.5956,-3.5956,-3.5955,0,-3.5484,-3.5555,-3.5553,-3.5602,-3.5681,-3.567,-3.5748,-3.5758,-3.5782,-3.5831,-3.5805,-3.5851,-3.584,-3.5887,-3.5882,-3.5957,-3.5968,-3.597,-3.5968,-3.5973,-3.5972,-3.5989,-3.5981,-3.5961,-3.596,-3.5959,-3.5958,0,-3.5622,-3.5623,-3.5707,-3.5732,-3.574,-3.5797,-3.5817,-3.5863,-3.5866,-3.5929,-3.5943,-3.5948,-3.6002,-3.5999,-3.6058,-3.6055,-3.6148,-3.6136,-3.6138,-3.6136,-3.6198,-3.6192,-3.64,-3.6427,-3.6243,-3.6245,-3.6246,0,-3.5713,-3.5767,-3.5798,-3.583,-3.5848,-3.5899,-3.593,-3.5921,-3.5954,-3.5991,-3.6032,-3.6083,-3.6123,-3.621,-3.6218,-3.6264,-3.6252,-3.6322,-3.6259,-3.6262,-3.6254,-3.6251,-3.6256,-3.6335,-3.6337,-3.6338,-3.634,0,-3.5875,-3.5873,-3.5918,-3.5965,-3.6002,-3.6038,-3.607,-3.6098,-3.6092,-3.613,-3.6185,-3.6216,-3.6277,-3.6328,-3.6372,-3.6386,-3.6362,-3.636,-3.6376,-3.6382,-3.6381,-3.6383,-3.6172,-3.6355,-3.6353,-3.6352,-3.6351,-3.6351,-3.5992,-3.6039,-3.6068,-3.612,-3.6144,-3.6175,-3.6219,-3.6228,-3.6274,-3.6324,-3.6316,-3.6377,-3.6404,-3.6461,-3.6479,-3.6526,-3.6501,-3.6525,-3.6532,-3.6538,-3.6545,-3.6374,-3.6534,-3.6533,-3.6533,-3.6533,-3.6532,0,-3.6153,-3.617,-3.6218,-3.6265,-3.6305,-3.628,-3.6315,-3.635,-3.6405,-3.6433,-3.6474,-3.6536,-3.6585,-3.6598,-3.6645,-3.668,-3.667,-3.6693,-3.669,-3.6694,-3.6565,-3.6546,-3.67,-3.67,-3.67,-3.67,-3.67,-3.67,-3.6241,-3.6319,-3.6321,-3.641,-3.6426,-3.6487,-3.6509,-3.6537,-3.656,-3.6632,-3.6673,-3.6681,-3.6702,-3.6751,-3.6794,-3.6797,-3.6815,-3.6842,-3.684,-3.6719,-3.6703,-3.6687,-3.6669,-3.6846,-3.6846,-3.6965,-3.6966,-3.6967]}]]